Glasgow, KY

6:34 PM CDT on August 28, 2016 (GMT -0500)
Glasgow Municipal

Weather History for KGLW - January, 2014

Change the Weather History Date:

Sunday, January 12, 2014

  Actual Average Record
Temperature  
Mean Temperature 42 °F -  
Max Temperature 53 °F 41 °F 69 °F (1960)
Min Temperature 30 °F 23 °F -2 °F (1981)
Degree Days  
Heating Degree Days 24    
Moisture  
Dew Point 33 °F    
Average Humidity 71    
Maximum Humidity 100    
Minimum Humidity 45    
Precipitation  
Precipitation 0.00 in - - ()
Sea Level Pressure  
Sea Level Pressure 30.03 in    
Wind  
Wind Speed 5 mph (SSW)    
Max Wind Speed 10 mph    
Max Gust Speed 16 mph    
Visibility 9 miles    
Events Fog    
Averages and records for this station are not official NWS values.
T = Trace of Precipitation, MM = Missing Value Source: NWS Daily Summary

Daily Weather History Graph

Daily Weather History Graph

Search for Another Location

Airport or City:

Trip Planner

Search our weather history database for the weather conditions in past years. The results will help you decide how hot, cold, wet, or windy it might be!

Date:

Astronomy

Jan. 12, 2014 Rise Set
Actual Time 6:56 AM CST 4:47 PM CST
Civil Twilight 6:28 AM CST 5:16 PM CST
Nautical Twilight 5:56 AM CST 5:48 PM CST
Astronomical Twilight 5:25 AM CST 6:19 PM CST
Moon 2:14 PM CST (1/12) 3:55 AM CST (1/12)
Length of Visible Light 10h 47m
Length of Day
9h 50m
Waxing Gibbous, 90% of the Moon is Illuminated
Jan 12
Waxing Gibbous
Jan 15
Full
Jan 23
Last Quarter
Jan 30
New
Feb 6
First Quarter

Hourly Weather History & Observations

Time (CST) Temp. Windchill Dew Point Humidity Pressure Visibility Wind Dir Wind Speed Gust Speed Precip Events Conditions
12:15 AM 36.1 °F 33.5 °F 33.3 °F 89% 29.93 in 10.0 mi WSW 3.5 mph - N/A   Scattered Clouds
12:35 AM 35.2 °F 31.2 °F 33.8 °F 94% 29.93 in 10.0 mi WSW 4.6 mph - N/A   Clear
12:55 AM 34.9 °F 29.9 °F 34.9 °F 100% 29.94 in 10.0 mi WSW 5.8 mph - N/A   Clear
1:15 AM 34.7 °F 29.6 °F 34.7 °F 100% 29.94 in 10.0 mi WSW 5.8 mph - N/A   Clear
1:35 AM 35.1 °F 30.1 °F 35.1 °F 100% 29.95 in 10.0 mi WSW 5.8 mph - N/A   Clear
1:55 AM 36.0 °F 31.1 °F 35.8 °F 99% 29.96 in 10.0 mi WSW 5.8 mph - N/A   Clear
2:15 AM 35.8 °F 30.9 °F 35.4 °F 99% 29.97 in 10.0 mi WSW 5.8 mph - N/A   Clear
2:35 AM 35.2 °F 31.2 °F 34.7 °F 98% 29.98 in 10.0 mi WSW 4.6 mph - N/A   Clear
2:55 AM 34.9 °F 32.0 °F 34.7 °F 99% 29.98 in 10.0 mi SW 3.5 mph - N/A   Clear
3:15 AM 34.0 °F - 34.0 °F 100% 29.98 in 10.0 mi Calm Calm - N/A   Clear
3:35 AM 33.8 °F - 33.8 °F 100% 29.97 in 10.0 mi Calm Calm - N/A   Clear
3:55 AM 32.9 °F - 32.9 °F 100% 29.98 in 7.0 mi Calm Calm - N/A   Clear
4:15 AM 32.2 °F - 32.2 °F 100% 29.98 in 5.0 mi Calm Calm - N/A   Clear
4:35 AM 31.8 °F - 31.8 °F 100% 29.99 in 4.0 mi Calm Calm - N/A   Clear
4:55 AM 30.9 °F - 30.9 °F 100% 30.01 in 2.0 mi Calm Calm - N/A   Clear
5:15 AM 31.3 °F 27.9 °F 31.3 °F 100% 30.03 in 4.0 mi WSW 3.5 mph - N/A   Clear
5:35 AM 31.3 °F - 31.3 °F 100% 30.03 in 5.0 mi Calm Calm - N/A   Clear
5:55 AM 31.5 °F - 31.5 °F 100% 30.04 in 4.0 mi Calm Calm - N/A   Clear
6:15 AM 31.6 °F - 31.6 °F 100% 30.04 in 4.0 mi Calm Calm - N/A   Clear
6:35 AM 30.6 °F - 30.6 °F 100% 30.05 in 0.8 mi Calm Calm - N/A   Mist
6:55 AM 31.1 °F - 31.1 °F 100% 30.06 in 5.0 mi Calm Calm - N/A   Clear
7:15 AM 30.7 °F - 30.7 °F 100% 30.07 in 0.2 mi Calm Calm - N/A Fog Light Freezing Fog
7:35 AM 30.4 °F - 30.4 °F 100% 30.08 in 1.0 mi Calm Calm - N/A   Mist
7:55 AM - - - N/A% 30.09 in 4.0 mi SW 3.5 mph - N/A   Haze
8:15 AM - - - N/A% 30.10 in 7.0 mi SW 4.6 mph - N/A   Clear
8:35 AM - - - N/A% 30.11 in 10.0 mi SW 5.8 mph - N/A   Clear
8:55 AM 36.9 °F 33.1 °F 35.4 °F 95% 30.12 in 10.0 mi SW 4.6 mph - N/A   Clear
9:15 AM 38.7 °F 35.2 °F 35.1 °F 87% 30.12 in 10.0 mi SW 4.6 mph - N/A   Clear
9:35 AM 40.5 °F - 35.2 °F 82% 30.12 in 10.0 mi Calm Calm - N/A   Clear
9:55 AM 41.7 °F 38.8 °F 34.9 °F 77% 30.12 in 10.0 mi SSW 4.6 mph - N/A   Clear
10:15 AM 42.8 °F 38.6 °F 34.3 °F 72% 30.11 in 10.0 mi SSW 6.9 mph - N/A   Clear
10:35 AM 44.4 °F 40.0 °F 34.5 °F 68% 30.11 in 10.0 mi South 8.1 mph - N/A   Clear
10:55 AM 45.7 °F 41.5 °F 34.9 °F 66% 30.10 in 10.0 mi SW 8.1 mph - N/A   Clear
11:15 AM 46.8 °F - 34.9 °F 63% 30.09 in 10.0 mi South 10.4 mph - N/A   Clear
11:35 AM 47.5 °F - 35.1 °F 62% 30.08 in 10.0 mi SSW 6.9 mph - N/A   Clear
11:55 AM 48.7 °F - 35.1 °F 59% 30.07 in 10.0 mi SW 6.9 mph - N/A   Clear
12:15 PM 49.6 °F - 34.7 °F 56% 30.06 in 10.0 mi SW 6.9 mph - N/A   Clear
12:35 PM 50.2 °F - 34.9 °F 56% 30.04 in 10.0 mi SSW 6.9 mph - N/A   Clear
12:55 PM 51.1 °F - 34.2 °F 52% 30.04 in 10.0 mi SW 8.1 mph - N/A   Clear
1:15 PM 52.0 °F - 33.1 °F 49% 30.04 in 10.0 mi South 8.1 mph - N/A   Clear
1:35 PM 52.3 °F - 33.4 °F 49% 30.03 in 10.0 mi SSW 10.4 mph - N/A   Clear
1:55 PM 52.7 °F - 33.4 °F 48% 30.03 in 10.0 mi South 6.9 mph - N/A   Clear
2:15 PM 53.1 °F - 33.8 °F 48% 30.03 in 10.0 mi South 6.9 mph - N/A   Clear
2:35 PM 53.4 °F - 34.0 °F 48% 30.03 in 10.0 mi South 6.9 mph - N/A   Clear
2:55 PM 53.4 °F - 32.9 °F 46% 30.03 in 10.0 mi South 6.9 mph - N/A   Clear
3:15 PM 53.6 °F - 32.5 °F 45% 30.03 in 10.0 mi SSW 9.2 mph 16.1 mph N/A   Clear
3:35 PM 53.4 °F - 32.5 °F 45% 30.04 in 10.0 mi South 9.2 mph - N/A   Clear
3:55 PM 52.9 °F - 32.2 °F 45% 30.03 in 10.0 mi South 9.2 mph - N/A   Clear
4:15 PM 52.3 °F - 31.3 °F 45% 30.03 in 10.0 mi South 8.1 mph - N/A   Clear
4:35 PM 51.6 °F - 31.1 °F 45% 30.03 in 10.0 mi South 4.6 mph - N/A   Clear
4:55 PM 50.2 °F - 31.1 °F 48% 30.03 in 10.0 mi South 4.6 mph - N/A   Clear
5:15 PM 49.3 °F - 31.3 °F 50% 30.03 in 10.0 mi South 3.5 mph - N/A   Clear
5:35 PM 48.6 °F - 32.0 °F 53% 30.03 in 10.0 mi South 4.6 mph - N/A   Clear
5:55 PM 48.0 °F - 32.0 °F 54% 30.03 in 10.0 mi SSE 3.5 mph - N/A   Clear
6:15 PM 47.3 °F - 31.6 °F 55% 30.02 in 10.0 mi SE 3.5 mph - N/A   Clear
6:35 PM 46.6 °F - 31.6 °F 56% 30.01 in 10.0 mi SSE 4.6 mph - N/A   Clear
6:55 PM 46.8 °F - 32.0 °F 57% 30.02 in 10.0 mi South 3.5 mph - N/A   Clear
7:15 PM 46.6 °F - 32.0 °F 57% 30.01 in 10.0 mi SSE 4.6 mph - N/A   Clear
7:35 PM 46.4 °F 43.5 °F 31.8 °F 57% 30.02 in 10.0 mi South 5.8 mph - N/A   Clear
7:55 PM 45.5 °F 41.8 °F 31.8 °F 59% 30.01 in 10.0 mi South 6.9 mph - N/A   Clear
8:15 PM 45.5 °F 42.5 °F 31.3 °F 58% 30.01 in 10.0 mi South 5.8 mph - N/A   Clear
8:35 PM 45.3 °F 42.3 °F 30.7 °F 57% 30.01 in 10.0 mi South 5.8 mph - N/A   Clear
8:55 PM 45.1 °F 41.4 °F 30.2 °F 56% 30.01 in 10.0 mi South 6.9 mph - N/A   Clear
9:15 PM 45.5 °F 41.8 °F 30.2 °F 55% 30.01 in 10.0 mi South 6.9 mph - N/A   Clear
9:35 PM 45.9 °F 41.7 °F 29.8 °F 54% 30.00 in 10.0 mi South 8.1 mph - N/A   Clear
9:55 PM 46.2 °F 41.7 °F 29.3 °F 52% 29.99 in 10.0 mi SSE 9.2 mph - N/A   Clear
10:15 PM 46.4 °F 41.9 °F 28.9 °F 51% 29.99 in 10.0 mi South 9.2 mph - N/A   Clear
10:35 PM 46.6 °F - 28.9 °F 50% 29.98 in 10.0 mi South 8.1 mph - N/A   Clear
10:55 PM 46.2 °F 41.2 °F 29.3 °F 52% 29.98 in 10.0 mi South 10.4 mph - N/A   Clear
11:15 PM 46.0 °F 41.4 °F 29.7 °F 53% 29.97 in 10.0 mi South 9.2 mph - N/A   Clear
11:35 PM 46.2 °F 41.2 °F 30.2 °F 54% 29.97 in 10.0 mi South 10.4 mph 16.1 mph N/A   Clear
11:55 PM 46.4 °F 42.4 °F 30.0 °F 53% 29.97 in 10.0 mi South 8.1 mph - N/A   Clear